Location: New Mesquite
(33.1168°N, 96.4336°W)
Time: 13:36:15
(UTC+00:00)

Meteor 1-27 Rocket - Pass Details

Date: 08 July 2022
Orbit: 829 x 911 km, 81.3° (Epoch: 18 August)

Event Time Altitude Azimuth Distance (km) Brightness Sun altitude
Rises 08:47:18 0° 347° (NNW) 3,402 7.4 -25.6°
Reaches altitude 10° 08:49:45 10° 344° (NNW) 2,455 6.6 -25.3°
Maximum altitude 08:55:12 60° 266° (W) 945 3.7 -24.6°
Enters shadow 08:55:25 60° 254° (WSW) 949 3.6 -24.6°
